STARLINK-37590, 69838

Orbit data source: Space-Track

STARLINK-37590, 69838 is a payload satellite owned by SpaceX/Seattle (US) in LEO that was launched on Sun, 05 Jul 2026 UTC via an FALCON 9 launch vehicle from the Air Force Eastern Test Range (AFETR). Payload-class satellites include a variety of spacecraft equipped with specific instruments for various scientific and technological missions. These include communications satellites like Starlink; space stations such as the ISS; scientific satellites like the Hubble; Earth observation satellites from companies like Planet Labs, Umbra, and HawkEye 360; GPS; miniature CubeSats for education and research; and military/defense satellites.

Loading next visibility...
Identifier
69838, 2026-154V
Orbit
LEO
Country
Flag of USUS
Related business
Manufacturer
SpaceX/Seattle
Mission
Operational spacecraft
Bus & Motor
STARLINK V2MO, Unknown motor
Mass
575 kg wet, ~530 kg dry
Launch date (UTC)
2026-07-05 (2 months ago)
Launch vehicle
FALCON 9
Launch site
Air Force Eastern Test Range (AFETR)
Object type
Payload
Rocket body
Debris
Shape & HBR
BOX + PAN, 17.7 m
Radar Cross Section
Large (>1 m²)

Expand to show TLE details & history
Last TLE update: 19 hours ago

TLE from 19 hours ago
0 STARLINK-37590
1 69838U 26154V   26236.02669874  .00028378  00000-0  82050-3 0  9999
2 69838  53.1604  99.9145 0001183  78.9911 281.1225 15.35432889  9020
Epoch: 2026-08-24T00:38Z
TLE epoch observation values (Epoch: 2026-08-24T00:38:26.771Z)
Latitude
-0.00001°
Longitude
117.98864°
Altitude
460.381 km
Speed
7.638 km/s
True Right ascension
06h 39m 39s
True Declination
0° 00' 00"
Sunlit
Object was in daylight at epoch
Visualization orbit readout
Latitude
Unknown
Longitude
Unknown
Altitude
Unknown
Speed
Unknown
Apparent Right ascension
Unknown
Apparent Declination
Unknown
Sunlit
N/A
Visualization observer readout
Local Sidereal Time
10:27:29
Azimuth
Unknown
Elevation
Unknown
Doppler factor
Unknown
Orbital elements
Apogee altitude
460.701 km
Perigee altitude
459.083 km
Semi-major axis
6,838.029 km
Eccentricity
0.00012
Inclination
53.1604°
RAAN
99.9145°
Arg. of periapsis
78.9911°
True anomaly
281.1092°
Mean anomaly
281.1225°
Eccentric anomaly
281.11585°
Mean motion
3.83837 °/min
Orbital period
93.79 mins
BSTAR
0.0008205
Loading maneuver chart data...
Computing Atmospheric mass density...
Loading historical data...
Loading historical data...
Loading historical data...
Loading historical data...
Loading historical data...
Loading historical data...
Loading historical data...

Documentation

Showing up to 5 results
|